This demonstration page uses our WeatherBlox Daily Observations layout. Learn more.

Left ArrowRight Arrow

40.92945, -100.16068

Hourly Observations for November 24, 2018

Temp ( °F °C ) Dew Point ( °F °C ) Humidity (%) Winds ( mph kmh ) Pressure ( in mb ) Visibility ( mi km ) Precip ( " mm )
12:15 am 00:15 Clear 32 0.2 27 -2.9 80 80 WNW 3 6 29.8 1009 10 16.0934 0 0
12:35 am 00:35 Clear 33 0.8 27 -2.8 77 77 WNW 8 13 29.8 1009 10 16.0934 0 0
12:55 am 00:55 Clear 33 0.7 27 -2.6 79 79 NW 8 13 29.8 1009 10 16.0934 0 0
1:15 am 01:15 Clear 34 1 28 -2.3 79 79 WNW 9 15 29.77 1008 10 16.0934 0 0
1:35 am 01:35 Clear 35 1.8 28 -2.2 75 75 WNW 12 19 29.77 1008 10 16.0934 0 0
1:55 am 01:55 Clear 34 1.2 28 -2.2 78 78 WNW 9 15 29.77 1008 10 16.0934 0 0
2:15 am 02:15 Clear 32 0 27 -2.7 82 82 W 8 13 29.8 1009 10 16.0934 0 0
2:35 am 02:35 Clear 32 0 27 -2.9 81 81 WNW 7 11 29.8 1009 10 16.0934 0 0
2:55 am 02:55 Clear 31 -0.3 27 -2.8 83 83 WNW 10 17 29.8 1009 10 16.0934 0 0
3:15 am 03:15 Clear 31 -0.6 26 -3.2 83 83 WNW 8 13 29.8 1009 10 16.0934 0 0
3:35 am 03:35 Clear 30 -1 26 -3.3 85 85 WNW 10 17 29.8 1009 10 16.0934 0 0
3:55 am 03:55 Clear 30 -1.3 26 -3.6 85 85 WNW 8 13 29.8 1009 10 16.0934 0 0
4:15 am 04:15 Clear 29 -1.4 26 -3.5 86 86 W 7 11 29.8 1009 10 16.0934 0 0
4:35 am 04:35 Clear 28 -2.3 24 -4.4 86 86 Calm 29.83 1010 10 16.0934 0 0
4:55 am 04:55 Clear 29 -1.9 25 -3.8 87 87 NW 8 13 29.77 1008 10 16.0934 0 0
5:15 am 05:15 Clear 27 -2.9 24 -4.7 88 88 WNW 5 7 29.8 1009 10 16.0934 0 0
5:35 am 05:35 Clear 26 -3.3 23 -5.2 87 87 WNW 7 11 29.8 1009 10 16.0934 0 0
5:55 am 05:55 Clear 26 -3.2 24 -4.7 90 90 W 8 13 29.8 1009 10 16.0934 0 0
6:15 am 06:15 Clear 27 -2.9 24 -4.6 88 88 W 5 7 29.8 1009 10 16.0934 0 0
6:35 am 06:35 Mostly Cloudy 28 -2.5 25 -4 90 90 W 7 11 29.83 1010 10 16.0934 0 0
6:55 am 06:55 Mostly Cloudy 28 -2.5 24 -4.2 88 88 W 3 6 29.8 1009 10 16.0934 0 0
7:15 am 07:15 Partly Cloudy 27 -2.6 24 -4.3 88 88 W 5 7 29.83 1010 10 16.0934 0 0
7:35 am 07:35 Partly Cloudy 25 -3.9 22 -5.4 89 89 WNW 6 9 29.83 1010 10 16.0934 0 0
7:55 am 07:55 Cloudy 28 -2 26 -3.4 90 90 WNW 5 7 29.8 1009 10 16.0934 0 0
8:15 am 08:15 Cloudy 32 0 29 -1.9 87 87 WNW 7 11 29.8 1009 10 16.0934 0 0
8:35 am 08:35 Cloudy 33 0.5 29 -1.5 87 87 WNW 3 6 29.8 1009 10 16.0934 0 0
8:55 am 08:55 Cloudy 33 0.7 30 -1.1 88 88 W 5 7 29.8 1009 10 16.0934 0 0
9:15 am 09:15 Cloudy 34 1 30 -1 87 87 Calm 29.74 1007 10 16.0934 0 0
9:35 am 09:35 Cloudy 35 1.5 31 -0.6 86 86 Calm 29.74 1007 10 16.0934 0 0
9:55 am 09:55 Mostly Cloudy 36 2 31 -0.5 84 84 W 3 6 29.74 1007 10 16.0934 0 0
10:15 am 10:15 Mostly Cloudy 37 2.6 31 -0.3 81 81 WSW 3 6 29.77 1008 10 16.0934 0 0
10:35 am 10:35 Mostly Cloudy 38 3.1 32 -0.1 80 80 Calm 29.74 1007 10 16.0934 0 0
10:55 am 10:55 Cloudy 38 3.4 31 -0.5 76 76 Calm 29.74 1007 10 16.0934 0 0
11:15 am 11:15 Mostly Cloudy 39 3.8 31 -0.5 74 74 Calm 29.71 1006 10 16.0934 0 0
11:35 am 11:35 Cloudy 40 4.2 31 -0.3 73 73 Calm 29.71 1006 10 16.0934 0 0
11:55 am 11:55 Mostly Cloudy 41 4.8 32 0 71 71 Calm 29.71 1006 10 16.0934 0 0
12:15 pm 12:15 Mostly Cloudy 43 5.9 32 -0.1 66 66 Calm 29.68 1005 10 16.0934 0 0
12:35 pm 12:35 Mostly Cloudy 45 7 32 0 61 61 NNE 3 6 29.65 1004 10 16.0934 0 0
12:55 pm 12:55 Cloudy 45 7 32 0 61 61 ENE 5 7 29.62 1003 10 16.0934 0 0
1:15 pm 13:15 Cloudy 46 7.9 32 0 58 58 ENE 6 9 29.62 1003 10 16.0934 0 0
1:35 pm 13:35 Mostly Cloudy 47 8.5 32 0 55 55 E 7 11 29.59 1002 10 16.0934 0 0
1:55 pm 13:55 Mostly Cloudy 47 8.5 32 0 55 55 ESE 9 15 29.59 1002 10 16.0934 0 0
2:15 pm 14:15 Cloudy 47 8.5 32 0.1 56 56 ESE 10 17 29.56 1001 10 16.0934 0 0
2:35 pm 14:35 Cloudy 48 8.8 32 0.2 55 55 ESE 8 13 29.53 1000 10 16.0934 0 0
2:55 pm 14:55 Cloudy 48 9 33 0.4 55 55 E 10 17 29.53 1000 10 16.0934 0 0
3:15 pm 15:15 Mostly Cloudy 49 9.2 33 0.6 55 55 E 13 20 29.53 1000 10 16.0934 0 0
3:35 pm 15:35 Cloudy 48 8.8 33 0.5 56 56 E 13 20 29.59 1002 10 16.0934 0 0
3:55 pm 15:55 Cloudy 47 8.6 33 0.4 57 57 ENE 12 19 29.59 1002 10 16.0934 0 0
4:15 pm 16:15 Cloudy 47 8.1 34 1.2 62 62 NE 12 19 29.59 1002 10 16.0934 0 0
4:35 pm 16:35 Mostly Cloudy 46 7.6 34 1 63 63 NE 10 17 29.59 1002 10 16.0934 0 0
4:55 pm 16:55 Partly Cloudy 44 6.8 33 0.6 65 65 ENE 10 17 29.59 1002 10 16.0934 0 0
5:15 pm 17:15 Mostly Cloudy 44 6.5 33 0.3 65 65 ENE 12 19 29.62 1003 10 16.0934 0 0
5:35 pm 17:35 Mostly Cloudy 42 5.8 33 0.5 69 69 ENE 9 15 29.65 1004 10 16.0934 0 0
5:55 pm 17:55 Mostly Cloudy 42 5.8 33 0.6 70 70 ENE 9 15 29.65 1004 10 16.0934 0 0
6:15 pm 18:15 Cloudy 42 5.8 33 0.7 70 70 NNE 10 17 29.65 1004 10 16.0934 0 0
6:35 pm 18:35 Cloudy 43 6 33 0.7 69 69 NE 12 19 29.68 1005 10 16.0934 0 0
6:55 pm 18:55 Cloudy 43 6.3 33 0.7 68 68 NE 13 20 29.68 1005 10 16.0934 0 0
7:15 pm 19:15 Cloudy 43 6.1 33 0.6 68 68 NE 12 19 29.71 1006 10 16.0934 0 0
7:35 pm 19:35 Cloudy 43 6 34 1 71 71 NE 13 20 29.74 1007 10 16.0934 0 0
7:55 pm 19:55 Cloudy 42 5.7 34 1 72 72 NNE 12 19 29.74 1007 10 16.0934 0 0
8:15 pm 20:15 Cloudy with Drizzle 42 5.6 34 1 73 73 NE 16 26 29.74 1007 10 16.0934 0 0
8:35 pm 20:35 Cloudy with Light Rain 41 5.1 35 1.6 78 78 ENE 17 28 29.74 1007 10 16.0934 0 0
8:55 pm 20:55 Cloudy with Light Rain 41 4.8 35 1.6 80 80 ENE 18 30 29.74 1007 10 16.0934 0 0
9:15 pm 21:15 Cloudy with Light Rain 40 4.6 35 1.8 82 82 NE 16 26 29.74 1007 10 16.0934 0 0
9:35 pm 21:35 Cloudy with Light Rain 39 4 36 2 87 87 NE 17 28 29.74 1007 10 16.0934 0.01 0.254
9:55 pm 21:55 Cloudy with Light Rain 38 3.6 35 1.7 88 88 NE 16 26 29.8 1009 10 16.0934 0.04 1.016
10:15 pm 22:15 Cloudy with Light Rain 37 2.8 34 1.1 89 89 NE 20 31 29.8 1009 7 11.26538 0.02 0.508
10:35 pm 22:35 Cloudy with Light Snow 34 1.3 32 0 91 91 NNE 14 22 29.8 1009 4 6.43736 0.05 1.27
10:55 pm 22:55 Cloudy with Light Snow 34 1 32 0 93 93 NNE 14 22 29.85 1011 3 4.82802 0.06 1.524
11:15 pm 23:15 Windy with Snow Likely 34 1 32 0.1 94 94 NNE 20 31 29.85 1011 5 8.0467 0.02 0.508
11:35 pm 23:35 Cloudy with Light Snow 34 1 32 0 93 93 NNE 17 28 29.85 1011 4 6.43736 0.03 0.762
11:55 pm 23:55 Windy with Snow Likely 33 0.7 32 -0.2 94 94 NNE 21 33 29.88 1012 3 4.82802 0.03 0.762

Powered by AerisWeather